SCP
0 0 0 0 0 0 0 0 0 0 0 0 0 0 0 0 0 0 0 0 0 0 0 0 0 0 0 0 0 0 0 0 0 0 0 0 0 0 0 0 0 0 0 0
0 0 0 0 0 0 0 0 0 0 0 0 0 0 0 0 0 0 0 0 0 0 0 0 0 0 0 0 0 0 0 0 0 0 0 0 0 0 0 0 0 0 0 0
0 0 0 0 0 0 -0 0 0 0 0 -0 0 0 0 0 0 0 0 0 0 0 0 0 0 1 0 0 0 0 0 0 0 0 0 0 0 0 0 0 0 0 0 0
0 0 0 0 0 -0 0 0 0 0 0 0 0 0 0 0 0 0 0 0 0 0 0 0 0 0 0 0 0 0 0 0 0 0 0 0 0 0 0 0 0 0 0 0
0 0 0 0 0 0 -0 0 0 -0 0 -0 -0 0 0 0 0 0 0 0 0 0 0 0 0 0 0 0 0 0 0 0 0 0 0 0 0 0 0 0 0 0 0 0
0 0 0 0 0 0 -0 0 0 -0 0 0 0 0 0 0 0 0 0 0 0 0 0 0 0 0 0 0 0 1 1 1 0 0 0 0 0 0 0 0 0 0 0 0
0 0 0 0 0 0 -0 -0 0 0 0 0 0 0 0 0 0 0 0 0 0 0 0 0 0 0 0 0 0 0 0 0 0 0 0 0 0 0 0 0 0 0 0 0
0 0 0 0 0 0 -0 -0 0 0 0 0 0 0 0 0 0 0 0 0 0 0 0 0 0 0 0 0 0 0 0 0 0 0 0 0 0 0 0 0 0 0 0 0
0 0 0 0 0 0 0 0 0 -0 0 0 0 0 0 0 0 0 0 0 0 0 0 0 0 0 0 0 0 0 0 0 0 0 0 0 0 0 -0 -0 0 0 0 0
0 0 0 0 0 -0 0 0 0 0 0 0 -0 0 0 0 0 0 0 0 0 0 0 0 0 0 0 0 0 0 0 0 0 0 0 0 0 0 0 0 0 0 0 0
0 0 0 0 0 0 0 0 0 0 0 0 0 -0 0 0 0 0 0 0 0 0 0 0 0 0 0 0 0 0 0 0 0 0 0 0 0 0 0 0 0 0 0 0
0 0 0 0 0 0 0 -0 0 0 0 0 0 0 0 -0 0 0 0 0 0 0 0 0 0 0 0 0 0 0 0 0 0 0 0 0 0 0 0 0 0 0 0 0
0 0 0 0 0 0 0 0 0 0 0 0 0 0 -0 -0 -0 0 0 0 0 0 0 0 0 0 0 0 0 0 0 0 0 0 0 0 0 0 0 0 0 0 0 0
0 0 0 0 0 -0 0 -0 0 0 0 0 0 0 0 -0 0 0 0 0 0 0 0 0 0 0 0 0 0 0 0 0 0 0 0 0 0 0 0 0 0 0 0 0
0 0 -0 0 -0 -0 -0 -0 0 0 0 0 0 0 0 0 0 0 0 0 0 0 0 0 0 0 0 0 0 0 0 0 0 0 0 0 0 0 0 0 0 0 0 0
0 0 0 0 -0 -0 0 -0 -0 0 0 0 0 0 0 0 0 0 0 0 0 0 0 0 0 0 0 0 0 0 0 0 0 0 0 0 0 0 0 0 0 0 0 0
0 0 0 0 -0 -0 0 -0 -0 -0 0 0 0 0 0 0 0 0 0 0 0 0 0 0 0 0 0 0 0 0 0 0 0 0 0 0 0 0 0 0 0 0 0 0
0 0 0 0 0 0 0 0 0 -0 0 0 0 0 0 0 0 0 0 0 0 0 0 0 0 0 0 0 0 0 0 0 0 0 0 0 0 0 0 0 0 0 0 0
0 0 0 0 0 0 0 0 0 0 0 0 0 0 0 0 0 0 0 0 0 0 0 0 0 0 0 0 0 0 0 0 0 0 0 0 0 0 0 0 0 0 0 0
0 0 0 0 0 0 0 0 0 -0 0 0 0 0 0 0 0 0 0 0 0 0 0 0 0 0 0 0 0 0 0 0 0 0 0 0 0 0 0 0 0 0 0 0
0 0 0 0 0 0 0 0 0 0 0 0 -0 0 0 0 0 0 0 0 0 0 0 0 0 0 0 0 0 0 0 0 0 0 0 0 0 0 0 0 0 0 0 0
0 0 0 0 0 0 0 0 0 0 0 0 -0 0 0 0 0 0 0 0 0 0 0 0 0 0 0 0 0 0 0 0 0 0 0 0 0 0 0 0 0 0 0 0
0 0 0 0 0 0 0 0 0 0 0 0 0 -0 -0 -0 0 0 0 0 0 0 0 0 0 0 0 0 0 0 0 0 0 0 0 0 0 0 0 0 0 0 0 0
0 0 0 0 0 0 0 0 0 0 0 0 0 0 0 0 -0 0 0 0 0 0 0 0 0 0 0 0 0 0 0 0 0 0 0 0 0 0 0 0 0 0 0 0
0 0 0 0 0 0 0 0 0 0 0 0 0 0 0 0 0 0 0 0 0 0 0 0 0 0 0 0 0 0 0 0 0 0 0 0 0 0 0 0 0 0 0 0
0 0 0 0 0 0 0 0 0 0 0 0 0 0 0 0 0 0 0 0 0 0 0 0 0 0 0 0 0 0 0 0 0 0 0 0 0 0 0 0 0 0 0 0
Wind_Speed_500mb
10 9 15 21 24 26 34 43 41 34 42 29 38 37 26 40 22 19 36 36 41 48 45 37 43 41 40 38 52 61 73 65 59 57 57 55 52 47 44 42 40 38 36 35
4 17 26 26 28 28 31 31 37 35 45 22 29 19 28 25 20 29 39 40 29 51 40 40 43 46 48 43 40 59 59 63 63 56 56 56 50 46 43 39 40 40 41 39
14 18 22 25 21 28 32 29 29 29 45 13 18 18 17 18 36 38 31 32 20 45 45 42 44 45 47 48 45 46 56 60 53 60 59 54 47 48 43 37 35 36 33 33
14 12 13 18 30 27 34 30 23 25 27 9 17 8 21 20 17 12 26 32 30 7 35 42 56 52 50 37 34 32 44 50 49 60 57 55 49 41 43 35 34 31 28 30
6 12 10 14 15 17 20 24 27 27 28 12 7 11 14 32 34 24 22 41 43 33 32 40 39 43 38 37 38 35 29 35 45 52 51 49 51 46 35 27 24 24 24 24
31 20 10 10 18 23 16 22 24 28 24 8 19 16 12 7 18 13 16 18 30 36 36 39 49 40 34 40 42 43 36 41 43 46 49 43 39 35 29 30 31 27 22 22
6 5 8 11 14 7 3 7 4 3 2 10 8 4 16 10 14 13 14 18 9 14 22 33 36 39 31 34 41 49 50 55 47 41 49 46 42 34 29 24 25 12 13 22
14 4 8 11 6 11 17 10 4 6 3 6 1 6 9 11 23 25 22 16 11 14 15 21 25 29 36 29 33 40 43 46 43 46 50 45 32 12 10 28 13 26 18 25
9 5 5 7 8 8 14 4 1 6 7 3 9 12 4 12 17 15 16 18 17 15 13 18 20 25 38 36 27 21 26 25 24 23 22 14 19 18 20 21 20 18 14 13
4 11 0 7 8 15 14 17 6 5 7 7 8 7 9 18 11 10 9 18 15 15 19 23 25 28 28 40 45 37 32 34 32 27 22 20 19 19 22 19 15 12 10 8
7 7 2 3 6 5 4 8 6 5 1 6 8 4 9 12 12 11 16 16 18 19 21 26 29 32 37 40 48 55 34 46 52 46 36 22 17 22 23 16 15 15 12 9
7 8 9 8 10 3 5 8 9 2 9 9 1 6 11 10 12 25 19 22 22 21 22 30 36 39 40 42 42 48 55 41 27 23 25 24 24 24 21 19 18 18 16 15
14 5 10 2 5 4 7 9 17 10 7 6 4 7 5 9 14 19 24 21 23 26 32 35 38 41 42 42 41 39 36 34 33 30 29 31 29 25 23 23 22 21 21 20
13 6 6 8 19 18 10 19 16 9 4 8 7 19 18 13 10 17 21 24 27 30 31 35 41 45 45 45 44 42 41 36 34 32 31 30 28 26 25 25 26 26 27 25
5 8 14 22 18 10 11 20 17 13 12 9 8 5 19 11 3 11 20 25 30 31 31 36 39 39 40 41 39 37 37 35 31 29 28 30 30 29 29 27 27 26 25 26
9 6 12 9 11 13 14 15 17 15 14 14 16 14 8 6 4 14 23 20 27 28 31 34 35 35 34 33 31 29 28 26 23 24 28 30 27 25 23 23 22 21 21 21
5 8 8 10 13 16 8 5 10 13 16 14 11 12 5 3 7 14 18 17 20 23 28 29 28 27 25 23 20 21 23 25 24 24 26 24 22 19 17 16 16 17 21 24
5 8 4 9 12 6 6 11 5 11 15 18 17 17 19 7 25 27 17 17 20 19 22 22 20 18 16 14 16 19 22 23 22 20 18 15 12 9 10 12 17 21 26 31
17 4 6 2 3 13 7 12 9 10 6 27 23 22 22 31 30 32 27 29 31 26 20 16 12 11 13 15 18 20 23 21 17 13 8 5 3 8 13 17 23 28 31 33
5 8 2 8 1 6 3 10 17 15 1 39 43 42 29 5 4 6 16 21 23 21 20 17 16 16 15 17 17 17 15 11 8 6 5 7 12 16 20 24 29 32 31 29
2 4 11 8 6 11 6 21 8 8 7 31 33 39 48 17 19 20 32 41 38 36 34 26 21 18 15 12 8 6 5 7 11 13 16 19 22 24 26 30 31 29 27 27
10 8 8 3 2 11 11 8 6 7 14 11 27 37 32 29 31 30 30 29 22 20 15 14 11 8 5 3 5 9 13 16 18 21 23 25 26 27 28 28 30 31 31 30
4 9 4 4 7 4 4 2 10 14 12 10 11 15 13 21 19 19 19 20 20 18 14 10 7 8 10 13 15 18 23 27 30 32 32 29 27 29 31 33 32 31 31 31
8 9 4 6 4 3 11 14 14 6 5 10 4 13 14 15 11 10 10 11 10 11 11 12 12 14 19 22 26 30 33 36 37 39 37 34 33 33 33 33 32 32 33 33
4 8 7 8 18 25 23 23 24 17 14 13 11 11 12 10 5 4 9 13 18 21 23 26 28 29 32 33 34 37 39 41 43 44 44 43 42 41 40 37 37 36 36 36
17 12 7 10 15 6 12 8 11 22 23 20 20 16 12 12 13 15 18 19 21 23 27 31 34 37 40 43 44 46 46 47 47 47 47 49 50 49 45 43 40 41 37 37
Wind_Direction_500mb
310 266 264 271 267 291 314 301 291 292 294 295 249 240 222 237 240 239 217 219 207 191 193 217 200 202 213 223 208 211 214 206 207 204 207 213 220 226 227 223 232 238 245 246
312 273 277 293 292 281 272 287 286 291 277 346 306 257 212 235 205 213 226 244 196 183 181 184 201 200 197 217 219 214 219 218 216 211 214 220 226 224 233 239 241 247 246 247
281 263 280 292 284 282 273 271 272 278 298 300 276 297 279 254 233 208 216 229 224 190 180 186 205 199 199 204 229 218 220 222 215 214 219 223 227 233 232 233 237 247 241 243
290 325 329 309 273 265 282 285 255 267 282 269 6 271 229 252 262 221 206 218 232 199 182 196 195 197 217 237 237 238 222 221 218 218 220 222 222 220 232 234 243 248 244 240
312 345 338 295 275 319 271 300 277 263 279 326 214 257 240 206 222 219 212 214 221 224 199 185 192 189 205 214 233 237 215 218 219 222 226 226 221 231 243 240 238 226 231 236
268 276 271 252 285 266 265 299 259 250 238 276 250 247 279 158 182 201 105 107 189 203 197 190 177 182 188 214 216 218 218 222 221 225 221 221 224 225 226 216 219 216 232 249
267 217 246 241 278 106 147 283 307 330 32 230 2 263 256 90 70 83 78 69 107 137 185 177 177 174 193 227 224 216 209 216 218 236 226 220 218 219 218 228 213 213 301 293
332 330 353 341 320 310 291 261 293 276 222 247 343 236 253 75 71 84 73 75 83 130 165 178 171 172 177 188 216 218 210 206 209 221 225 218 206 202 286 244 272 310 319 261
321 333 312 343 322 339 334 221 356 300 223 331 192 242 124 69 60 63 73 87 88 109 146 162 164 172 153 163 185 190 196 221 206 197 202 224 292 315 302 264 237 224 216 212
300 291 342 301 310 258 233 327 340 232 331 314 338 49 38 17 41 70 80 85 93 113 130 140 148 151 154 149 148 149 148 142 141 141 133 121 132 128 127 130 121 100 103 102
269 265 343 216 209 330 291 275 273 292 335 330 329 41 357 343 355 94 79 97 107 110 119 132 137 141 147 149 146 140 140 133 133 131 125 119 125 136 140 145 139 133 131 120
314 301 295 306 131 162 217 294 312 296 332 350 202 293 339 13 3 89 87 86 96 102 111 119 126 131 133 136 138 134 137 140 138 147 147 157 160 140 127 116 112 98 86 76
343 319 309 107 116 197 277 263 254 290 290 267 347 308 33 60 58 93 102 101 100 106 106 107 115 119 122 124 128 130 130 129 125 125 124 120 116 110 98 93 86 81 78 76
345 310 317 333 311 298 313 331 325 257 309 300 261 317 345 27 57 96 111 113 110 109 113 119 119 117 117 118 119 119 117 116 114 115 114 110 105 101 99 93 88 82 75 69
67 307 336 304 311 344 320 301 303 303 266 232 272 297 306 33 79 128 132 125 120 116 122 125 122 122 122 121 120 117 114 114 114 114 113 109 107 102 97 90 80 71 64 56
1 298 320 286 263 323 280 286 304 301 281 289 294 289 260 52 108 143 140 144 135 132 137 135 131 128 126 124 124 123 121 120 120 118 114 110 107 101 91 82 72 60 47 33
337 352 341 277 334 322 22 339 327 333 326 335 311 292 311 183 169 157 144 152 143 143 142 137 136 136 132 131 129 132 133 130 131 127 120 116 108 98 83 61 39 20 9 359
230 311 252 277 341 23 260 32 339 298 290 321 306 326 319 318 82 84 142 146 135 137 140 143 144 143 143 144 146 149 144 142 140 133 125 116 100 71 35 10 357 351 343 338
212 216 284 124 277 273 43 19 360 12 355 6 344 337 356 109 100 44 66 121 126 132 138 139 142 137 141 139 144 151 152 150 147 144 139 119 40 351 340 336 336 335 332 329
157 218 263 353 56 247 13 313 329 318 13 6 18 3 350 39 59 26 62 96 107 108 99 99 96 105 114 128 141 149 156 161 174 214 264 300 312 314 313 317 320 321 321 323
226 230 223 244 262 291 290 315 329 60 323 0 42 10 26 60 70 87 87 85 84 85 87 85 86 85 89 100 121 158 201 238 260 277 289 296 300 301 306 310 311 310 310 309
172 166 204 219 57 291 356 330 103 233 336 46 67 59 44 54 71 78 71 67 56 49 55 66 72 82 72 0 303 298 289 282 279 281 283 283 283 290 300 305 307 307 307 308
255 188 215 162 215 199 333 167 153 79 47 35 93 114 133 121 112 99 82 67 59 56 53 37 11 357 314 304 299 295 293 290 286 282 278 275 283 294 302 305 303 303 303 304
234 209 193 35 360 222 250 227 227 200 100 58 67 130 147 129 108 84 62 50 33 12 352 338 325 312 302 301 298 295 291 288 283 276 272 270 276 286 293 296 297 298 299 299
188 129 195 257 283 286 260 257 249 262 286 263 207 190 161 151 126 30 359 344 336 329 322 316 313 311 307 303 300 295 292 288 283 275 266 266 272 279 285 288 293 295 293 295
197 198 172 235 236 255 284 289 268 256 275 253 243 246 271 301 325 328 320 320 316 311 309 308 309 306 303 301 298 293 289 284 279 274 273 273 274 275 275 276 281 286 286 288
Wind_Speed_850mb
10 9 15 21 24 26 34 43 41 34 42 29 38 37 26 40 22 19 36 36 41 48 45 37 43 41 40 38 52 61 73 65 59 57 57 55 52 47 44 42 40 38 36 35
4 17 26 26 28 28 31 31 37 35 45 22 29 19 28 25 20 29 39 40 29 51 40 40 43 46 48 43 40 59 59 63 63 56 56 56 50 46 43 39 40 40 41 39
14 18 22 25 21 28 32 29 29 29 45 13 18 18 17 18 36 38 31 32 20 45 45 42 44 45 47 48 45 46 56 60 53 60 59 54 47 48 43 37 35 36 33 33
14 12 13 18 30 27 34 30 23 25 27 9 17 8 21 20 17 12 26 32 30 7 35 42 56 52 50 37 34 32 44 50 49 60 57 55 49 41 43 35 34 31 28 30
6 12 10 14 15 17 20 24 27 27 28 12 7 11 14 32 34 24 22 41 43 33 32 40 39 43 38 37 38 35 29 35 45 52 51 49 51 46 35 27 24 24 24 24
31 20 10 10 18 23 16 22 24 28 24 8 19 16 12 7 18 13 16 18 30 36 36 39 49 40 34 40 42 43 36 41 43 46 49 43 39 35 29 30 31 27 22 22
6 5 8 11 14 7 3 7 4 3 2 10 8 4 16 10 14 13 14 18 9 14 22 33 36 39 31 34 41 49 50 55 47 41 49 46 42 34 29 24 25 12 13 22
14 4 8 11 6 11 17 10 4 6 3 6 1 6 9 11 23 25 22 16 11 14 15 21 25 29 36 29 33 40 43 46 43 46 50 45 32 12 10 28 13 26 18 25
9 5 5 7 8 8 14 4 1 6 7 3 9 12 4 12 17 15 16 18 17 15 13 18 20 25 38 36 27 21 26 25 24 23 22 14 19 18 20 21 20 18 14 13
4 11 0 7 8 15 14 17 6 5 7 7 8 7 9 18 11 10 9 18 15 15 19 23 25 28 28 40 45 37 32 34 32 27 22 20 19 19 22 19 15 12 10 8
7 7 2 3 6 5 4 8 6 5 1 6 8 4 9 12 12 11 16 16 18 19 21 26 29 32 37 40 48 55 34 46 52 46 36 22 17 22 23 16 15 15 12 9
7 8 9 8 10 3 5 8 9 2 9 9 1 6 11 10 12 25 19 22 22 21 22 30 36 39 40 42 42 48 55 41 27 23 25 24 24 24 21 19 18 18 16 15
14 5 10 2 5 4 7 9 17 10 7 6 4 7 5 9 14 19 24 21 23 26 32 35 38 41 42 42 41 39 36 34 33 30 29 31 29 25 23 23 22 21 21 20
13 6 6 8 19 18 10 19 16 9 4 8 7 19 18 13 10 17 21 24 27 30 31 35 41 45 45 45 44 42 41 36 34 32 31 30 28 26 25 25 26 26 27 25
5 8 14 22 18 10 11 20 17 13 12 9 8 5 19 11 3 11 20 25 30 31 31 36 39 39 40 41 39 37 37 35 31 29 28 30 30 29 29 27 27 26 25 26
9 6 12 9 11 13 14 15 17 15 14 14 16 14 8 6 4 14 23 20 27 28 31 34 35 35 34 33 31 29 28 26 23 24 28 30 27 25 23 23 22 21 21 21
5 8 8 10 13 16 8 5 10 13 16 14 11 12 5 3 7 14 18 17 20 23 28 29 28 27 25 23 20 21 23 25 24 24 26 24 22 19 17 16 16 17 21 24
5 8 4 9 12 6 6 11 5 11 15 18 17 17 19 7 25 27 17 17 20 19 22 22 20 18 16 14 16 19 22 23 22 20 18 15 12 9 10 12 17 21 26 31
17 4 6 2 3 13 7 12 9 10 6 27 23 22 22 31 30 32 27 29 31 26 20 16 12 11 13 15 18 20 23 21 17 13 8 5 3 8 13 17 23 28 31 33
5 8 2 8 1 6 3 10 17 15 1 39 43 42 29 5 4 6 16 21 23 21 20 17 16 16 15 17 17 17 15 11 8 6 5 7 12 16 20 24 29 32 31 29
2 4 11 8 6 11 6 21 8 8 7 31 33 39 48 17 19 20 32 41 38 36 34 26 21 18 15 12 8 6 5 7 11 13 16 19 22 24 26 30 31 29 27 27
10 8 8 3 2 11 11 8 6 7 14 11 27 37 32 29 31 30 30 29 22 20 15 14 11 8 5 3 5 9 13 16 18 21 23 25 26 27 28 28 30 31 31 30
4 9 4 4 7 4 4 2 10 14 12 10 11 15 13 21 19 19 19 20 20 18 14 10 7 8 10 13 15 18 23 27 30 32 32 29 27 29 31 33 32 31 31 31
8 9 4 6 4 3 11 14 14 6 5 10 4 13 14 15 11 10 10 11 10 11 11 12 12 14 19 22 26 30 33 36 37 39 37 34 33 33 33 33 32 32 33 33
4 8 7 8 18 25 23 23 24 17 14 13 11 11 12 10 5 4 9 13 18 21 23 26 28 29 32 33 34 37 39 41 43 44 44 43 42 41 40 37 37 36 36 36
17 12 7 10 15 6 12 8 11 22 23 20 20 16 12 12 13 15 18 19 21 23 27 31 34 37 40 43 44 46 46 47 47 47 47 49 50 49 45 43 40 41 37 37
Wind_Direction_850mb
310 266 264 271 267 291 314 301 291 292 294 295 249 240 222 237 240 239 217 219 207 191 193 217 200 202 213 223 208 211 214 206 207 204 207 213 220 226 227 223 232 238 245 246
312 273 277 293 292 281 272 287 286 291 277 346 306 257 212 235 205 213 226 244 196 183 181 184 201 200 197 217 219 214 219 218 216 211 214 220 226 224 233 239 241 247 246 247
281 263 280 292 284 282 273 271 272 278 298 300 276 297 279 254 233 208 216 229 224 190 180 186 205 199 199 204 229 218 220 222 215 214 219 223 227 233 232 233 237 247 241 243
290 325 329 309 273 265 282 285 255 267 282 269 6 271 229 252 262 221 206 218 232 199 182 196 195 197 217 237 237 238 222 221 218 218 220 222 222 220 232 234 243 248 244 240
312 345 338 295 275 319 271 300 277 263 279 326 214 257 240 206 222 219 212 214 221 224 199 185 192 189 205 214 233 237 215 218 219 222 226 226 221 231 243 240 238 226 231 236
268 276 271 252 285 266 265 299 259 250 238 276 250 247 279 158 182 201 105 107 189 203 197 190 177 182 188 214 216 218 218 222 221 225 221 221 224 225 226 216 219 216 232 249
267 217 246 241 278 106 147 283 307 330 32 230 2 263 256 90 70 83 78 69 107 137 185 177 177 174 193 227 224 216 209 216 218 236 226 220 218 219 218 228 213 213 301 293
332 330 353 341 320 310 291 261 293 276 222 247 343 236 253 75 71 84 73 75 83 130 165 178 171 172 177 188 216 218 210 206 209 221 225 218 206 202 286 244 272 310 319 261
321 333 312 343 322 339 334 221 356 300 223 331 192 242 124 69 60 63 73 87 88 109 146 162 164 172 153 163 185 190 196 221 206 197 202 224 292 315 302 264 237 224 216 212
300 291 342 301 310 258 233 327 340 232 331 314 338 49 38 17 41 70 80 85 93 113 130 140 148 151 154 149 148 149 148 142 141 141 133 121 132 128 127 130 121 100 103 102
269 265 343 216 209 330 291 275 273 292 335 330 329 41 357 343 355 94 79 97 107 110 119 132 137 141 147 149 146 140 140 133 133 131 125 119 125 136 140 145 139 133 131 120
314 301 295 306 131 162 217 294 312 296 332 350 202 293 339 13 3 89 87 86 96 102 111 119 126 131 133 136 138 134 137 140 138 147 147 157 160 140 127 116 112 98 86 76
343 319 309 107 116 197 277 263 254 290 290 267 347 308 33 60 58 93 102 101 100 106 106 107 115 119 122 124 128 130 130 129 125 125 124 120 116 110 98 93 86 81 78 76
345 310 317 333 311 298 313 331 325 257 309 300 261 317 345 27 57 96 111 113 110 109 113 119 119 117 117 118 119 119 117 116 114 115 114 110 105 101 99 93 88 82 75 69
67 307 336 304 311 344 320 301 303 303 266 232 272 297 306 33 79 128 132 125 120 116 122 125 122 122 122 121 120 117 114 114 114 114 113 109 107 102 97 90 80 71 64 56
1 298 320 286 263 323 280 286 304 301 281 289 294 289 260 52 108 143 140 144 135 132 137 135 131 128 126 124 124 123 121 120 120 118 114 110 107 101 91 82 72 60 47 33
337 352 341 277 334 322 22 339 327 333 326 335 311 292 311 183 169 157 144 152 143 143 142 137 136 136 132 131 129 132 133 130 131 127 120 116 108 98 83 61 39 20 9 359
230 311 252 277 341 23 260 32 339 298 290 321 306 326 319 318 82 84 142 146 135 137 140 143 144 143 143 144 146 149 144 142 140 133 125 116 100 71 35 10 357 351 343 338
212 216 284 124 277 273 43 19 360 12 355 6 344 337 356 109 100 44 66 121 126 132 138 139 142 137 141 139 144 151 152 150 147 144 139 119 40 351 340 336 336 335 332 329
157 218 263 353 56 247 13 313 329 318 13 6 18 3 350 39 59 26 62 96 107 108 99 99 96 105 114 128 141 149 156 161 174 214 264 300 312 314 313 317 320 321 321 323
226 230 223 244 262 291 290 315 329 60 323 0 42 10 26 60 70 87 87 85 84 85 87 85 86 85 89 100 121 158 201 238 260 277 289 296 300 301 306 310 311 310 310 309
172 166 204 219 57 291 356 330 103 233 336 46 67 59 44 54 71 78 71 67 56 49 55 66 72 82 72 0 303 298 289 282 279 281 283 283 283 290 300 305 307 307 307 308
255 188 215 162 215 199 333 167 153 79 47 35 93 114 133 121 112 99 82 67 59 56 53 37 11 357 314 304 299 295 293 290 286 282 278 275 283 294 302 305 303 303 303 304
234 209 193 35 360 222 250 227 227 200 100 58 67 130 147 129 108 84 62 50 33 12 352 338 325 312 302 301 298 295 291 288 283 276 272 270 276 286 293 296 297 298 299 299
188 129 195 257 283 286 260 257 249 262 286 263 207 190 161 151 126 30 359 344 336 329 322 316 313 311 307 303 300 295 292 288 283 275 266 266 272 279 285 288 293 295 293 295
197 198 172 235 236 255 284 289 268 256 275 253 243 246 271 301 325 328 320 320 316 311 309 308 309 306 303 301 298 293 289 284 279 274 273 273 274 275 275 276 281 286 286 288